User: anonymous   Login
Location: Bernay
(48.6766°N, 2.9386°E)
Time: 06:29:30
(UTC+00:00)
Language:

COSMOS 2455 - Orbit

View from above orbital plane
View from above orbital plane
View from above satellite
View from above satellite

Ground track
Ground track

The orbit is defined by the following mean orbital elements,

1 36095U          26075.86512315 +.00000000 +00000-0 +46470-4 0 00002
2 36095  67.1460 117.4269 0006112 244.1541 115.8914 13.97041655    00
Epoch (UTC): 16 March 2026 20:45:46
Eccentricity: 0.0006112
inclination: 67.1460°
perigee height: 900 km
apogee height: 909 km
right ascension of ascending node: 117.4269°
argument of perigee: 244.1541°
revolutions per day: 13.97041655
mean anomaly at epoch: 115.8914°

The dashed part of the orbit path shows where the satellite is in the earth's shadow,  

DLR